PROPCUBE 3

Last updated on Sun Apr 12 2026 00:03:55 GMT+0000 (Coordinated Universal Time)

1 40973U 15058K 26101.40545046 .00002683 00000+0 23232-3 0 9993 2 40973 64.7672 101.1082 0122647 86.4410 275.0720 14.93784380104820
UTC large
Height (km)
Speed (km/s)
/
Latitude / Longitude
Inclination (degrees)
Orbital Period (minutes)
Azimuth
Elevation
Range (km)
Doppler Factor

Next 0 passes for location: London (51.5072 / 0.1276)

Sorry there are no passes over London.
PROPCUBE 3